Regional Weather Roundup
Issued by NWS

Home | Current Version | Previous Version | Graphics & Text | Print | Product List | Glossary On
Versions: 1 2 3 4 5 6 7 8 9 10 11 12 13 14 15 16 17 18 19 20 21 22 23 24 25 26 27 28 29 30 31 32 33 34 35 36 37 38 39 40 41 42 43 44 45 46 47 48 49 50
000
ASUS44 KMEG 311500
RWRTN
TENNESSEE HOURLY STATE WEATHER ROUNDUP
NATIONAL WEATHER SERVICE MEMPHIS TN
1000 AM CDT THU JUL 31 2014

TNZ002-004-019-021-049-052-054-088>092-311600-
WEST TENNESSEE

CITY           SKY/WX    TMP DP  RH WIND       PRES   REMARKS
MEMPHIS INTL   CLOUDY    73  65  75 NW3       30.11R
NWS MEMPHIS      N/A     72 N/A N/A MISG        N/A
JACKSON        CLOUDY    73  65  75 NE3       30.11S
DYERSBURG      CLOUDY    72  59  64 CALM      30.12S
UNION CITY     PTSUNNY   70  64  83 CALM      30.11R
PARIS          PTSUNNY   73  61  64 SE3       30.13R
LEXINGTON      SUNNY     72  61  68 CALM      30.11S
SAVANNAH       SUNNY     73  64  73 CALM      30.11S
$$

TNZ008-025-027-028-033-062-065-066-311600-
NORTH MIDDLE TENNESSEE

CITY           SKY/WX    TMP DP  RH WIND       PRES   REMARKS
NASHVILLE      PTSUNNY   76  61  59 VRB5      30.12S
CLARKSVILLE    SUNNY     77  57  50 VRB7      30.11F
COOKEVILLE     SUNNY     68  64  88 CALM      30.13S
CROSSVILLE     CLOUDY    69  60  73 N5        30.16S
$$

TNZ061-075-076-078-094-096-097-311600-
SOUTH MIDDLE TENNESSEE

CITY           SKY/WX    TMP DP  RH WIND       PRES   REMARKS
FAYETTEVILLE   SUNNY     66  61  82 NE9G22    30.11S
TULLAHOMA      SUNNY     70  59  68 NE5       30.13S
WINCHESTER     SUNNY     68  61  77 CALM      30.12S
COLUMBIA       SUNNY     70  63  78 NE3       30.11S
SHELBYVILLE    SUNNY     70  64  83 CALM      30.13S
$$

TNZ017-018-042-046-047-311600-
NORTHEAST TENNESSEE

CITY           SKY/WX    TMP DP  RH WIND       PRES   REMARKS
TRI CITIES     PTSUNNY   69  57  65 E3        30.16R
ELIZABETHTON   SUNNY     70  55  60 CALM        N/A
$$

TNZ012-013-036-069-073-074-311600-
CENTRAL EAST TENNESSEE

CITY           SKY/WX    TMP DP  RH WIND       PRES   REMARKS
KNOXVILLE      CLOUDY    68  60  75 NE7       30.12R
OAK RIDGE      CLOUDY    70  62  76 VRB5      30.14S
GATLINBURG     SUNNY     66  57  72 CALM      30.13S
$$

TNZ083-085-099-311600-
SOUTHEAST TENNESSEE

CITY           SKY/WX    TMP DP  RH WIND       PRES   REMARKS
CHATTANOOGA    CLOUDY    71  61  70 N8        30.11R
$$

SKY/WX REPORTED AS FAIR MEANS FEW OR NO CLOUDS BELOW
12 THOUSAND FEET.




USA.gov is the U.S. government's official web portal to all federal, state and local government web resources and services.